الصفحة الرئيسية
METAR-TAF:

METAR-TAF

مطار :

Show Low, أريزونا, الولايات المتحدة

دائرة عرض: 34-16N, خط طول: 110-00W, ارتفاع: 1954 متر

مراقبة الطقس الحالي

تاريخ ووقت الإصدار 14 دقيقة قبل الساعة 17:55UTC
ريح 24 عقدة من الجنوب/الجنوب الغربي تتزايد حتى 37 عقدة
درجة الحرارة 10°درجة مئوية
الرطوبة 57%
ضغط 1014 hPa
الرؤية: 16.1 كم
سماء صافية

METAR: KSOW 141755Z AUTO 21024G37KT 10SM CLR 10/02 A2995 RMK AO2

زمن: 11:09 (18:09 UTC)


TAF: مفقودة

أرصاد الطقس والتوقعات من أكثر من 4000 مطار (تقارير الطقس للمطار METAR والتنبؤ بالطقس بالمطارTAF).

المحطات المتاحة هي النقط الصفراء والحمراء على الخريطة.

حرك المؤشر فوق النقطة لمعرفة اسم المحطة.

ثم انقر لمعرفة أرصاد وتوقعات الطقس.

لتغيير الخارطة: اضغط على الأزرار الخضراء مع رمز الصليب الأسود للتكبير. على الزر الأخضر مع شرطة للتصغير، أو على الأسهم الخضراء للخرائط المجاورة.


METAR-TAF: